Waarnemingen

Advertentie
Mijn weer
Parkalompolo, Zweden (2072): temperatuur & dauwpunt: 29.07.2020 18:00:00 - 04.08.2020 18:00:00 (CEST)Parkalompolo, Zweden (2072): windsnelheid & windstoten: 29.07.2020 18:00:00 - 04.08.2020 18:00:00 (CEST)Parkalompolo, Zweden (2072): windrichting: 29.07.2020 18:00:00 - 04.08.2020 18:00:00 (CEST)Parkalompolo, Zweden (2072): luchtdruk: 29.07.2020 18:00:00 - 04.08.2020 18:00:00 (CEST)Parkalompolo, Zweden (2072): zicht: 29.07.2020 18:00:00 - 04.08.2020 18:00:00 (CEST)Parkalompolo, Zweden (2072): neerslag: 29.07.2020 18:00:00 - 04.08.2020 18:00:00 (CEST)
Datum & Tijd tt [°C] td [°C] ff [km/u] ff [kn] fx [km/u] fx [kn] dd ppp [hPa] vv [km] rr [mm]
04.08.2020 18:00:00 17,9 5,1 7 4 16 9 ZZW 1001,9 46 0,0
04.08.2020 17:00:00 18,3 5,5 4 2 18 10 ZW 1001,7 50 0,0
04.08.2020 16:00:00 19,0 5,4 3 2 8 5 N 1001,7 38 0,0
04.08.2020 15:00:00 18,3 4,1 3 1 15 8 Z 1002,0 47 0,0
04.08.2020 14:00:00 16,9 5,5 6 4 21 11 ZZO 1002,2 44 0,0
04.08.2020 13:00:00 17,5 6,1 6 3 12 7 Z 1001,9 48 0,0
04.08.2020 12:00:00 16,8 5,4 6 3 16 9 Z 1002,0 44 0,0
04.08.2020 11:00:00 17,0 5,0 8 4 16 8 ZZO 1002,0 46 0,0
04.08.2020 10:00:00 18,0 5,6 5 3 14 8 ZZO 1001,8 46 0,0
04.08.2020 09:00:00 17,4 5,7 7 4 19 10 Z 1001,9 37 0,0
04.08.2020 08:00:00 16,4 6,8 0 0 6 3 N 1002,0 39 0,0
04.08.2020 07:00:00 14,3 7,1 0 0 5 3 N 1002,3 45 0,0
04.08.2020 06:00:00 12,0 4,9 0 0 3 2 N 1002,6 43 0,0
04.08.2020 05:00:00 8,3 3,5 0 0 2 1 N 1003,3 37 0,0
04.08.2020 04:00:00 4,6 1,6 0 0 1 0 N 1003,9 40 0,0
04.08.2020 03:00:00 5,1 1,9 0 0 1 1 N 1003,9 50 0,0
04.08.2020 02:00:00 6,6 1,9 0 0 2 1 N 1003,7 50 0,0
04.08.2020 01:00:00 6,8 1,9 0 0 3 2 N 1003,5 41 0,0
04.08.2020 00:00:00 7,7 3,5 0 0 1 1 N 1003,5 48 0,0
03.08.2020 23:00:00 8,4 5,9 0 0 3 1 N 1003,2 50 0,0
03.08.2020 22:00:00 10,4 6,5 0 0 3 2 N 1002,9 50 0,0
03.08.2020 21:00:00 14,3 6,4 3 1 9 5 ZZO 1002,4 50 0,0
03.08.2020 20:00:00 16,7 5,6 4 2 12 7 ZZO 1001,9 43 0,0
03.08.2020 19:00:00 17,6 5,8 5 3 11 6 ZZO 1001,7 50 0,0
03.08.2020 18:00:00 18,0 6,2 5 3 15 8 Z 1001,9 39 0,0
03.08.2020 17:00:00 18,7 7,2 8 4 16 9 ZZW 1002,0 37 0,0
03.08.2020 16:00:00 18,6 6,8 7 4 14 7 ZZW 1002,3 41 0,0
03.08.2020 15:00:00 19,3 6,4 4 2 13 7 W 1002,5 37 0,0
03.08.2020 14:00:00 18,4 6,6 8 5 16 8 WZW 1002,9 44 0,0
03.08.2020 13:00:00 18,2 7,6 7 4 15 8 Z 1003,2 34 0,0
03.08.2020 12:00:00 17,7 7,7 3 2 14 8 ZZO 1003,5 43 0,0
03.08.2020 11:00:00 16,4 7,1 4 2 13 7 ZZW 1004,0 32 0,0
03.08.2020 10:00:00 15,7 7,5 3 2 11 6 WZW 1004,5 38 0,0
03.08.2020 09:00:00 14,6 6,9 5 3 10 5 ZW 1005,2 35 0,0
03.08.2020 08:00:00 14,2 7,5 0 0 6 3 N 1005,6 31 0,0
03.08.2020 07:00:00 12,2 7,3 0 0 4 2 N 1006,3 46 0,0
03.08.2020 06:00:00 9,5 6,9 0 0 3 2 N 1007,0 38 0,0
03.08.2020 05:00:00 4,4 3,1 0 0 3 2 N 1008,1 26 0,0
03.08.2020 04:00:00 2,1 1,5 0 0 3 2 N 1008,7 15 0,0
03.08.2020 03:00:00 2,4 2,0 2 1 4 2 NNW 1009,0 17 0,0
03.08.2020 02:00:00 2,2 1,6 3 2 4 2 NNW 1009,5 13 0,0
03.08.2020 01:00:00 3,5 2,8 0 0 3 1 N 1009,6 16 0,0
03.08.2020 00:00:00 5,0 3,8 0 0 3 2 N 1009,6 26 0,0
02.08.2020 23:00:00 5,8 4,6 0 0 4 2 N 1009,6 18 0,0
02.08.2020 22:00:00 10,2 6,2 3 2 8 4 ONO 1009,2 50 0,0
02.08.2020 21:00:00 12,1 6,6 4 2 14 7 ONO 1009,1 50 0,0
02.08.2020 20:00:00 13,7 6,5 9 5 18 10 ONO 1009,0 44 0,0
02.08.2020 19:00:00 14,7 5,8 8 5 19 11 ONO 1009,1 40 0,0
02.08.2020 18:00:00 15,6 6,3 5 3 16 9 NO 1009,2 40 0,0
02.08.2020 17:00:00 15,6 5,2 10 5 22 12 O 1009,6 44 0,0
02.08.2020 16:00:00 15,8 5,4 5 3 22 12 NNO 1009,8 46 0,0
02.08.2020 15:00:00 16,2 6,1 8 4 19 10 NO 1010,2 41 0,0
02.08.2020 14:00:00 16,1 6,0 11 6 20 11 ONO 1010,5 42 0,0
02.08.2020 13:00:00 15,2 5,4 6 4 22 12 ONO 1011,0 41 0,0
02.08.2020 12:00:00 14,2 6,8 10 6 22 12 NNO 1011,5 41 0,0
02.08.2020 11:00:00 14,0 7,7 5 3 20 11 NO 1012,0 43 0,0
02.08.2020 10:00:00 13,2 6,5 12 7 22 12 ONO 1012,4 43 0,0
02.08.2020 09:00:00 12,4 7,1 11 6 23 12 NO 1012,7 39 0,0
02.08.2020 08:00:00 12,5 8,8 6 3 22 12 NO 1012,7 45 0,0
02.08.2020 07:00:00 11,2 8,8 11 6 19 10 NO 1013,1 48 0,0
02.08.2020 06:00:00 10,5 8,3 9 5 21 11 NO 1013,4 50 0,0
02.08.2020 05:00:00 10,6 8,5 8 4 14 8 NNO 1013,5 49 0,0
02.08.2020 04:00:00 10,7 8,3 7 4 17 9 N 1013,8 50 0,0
02.08.2020 03:00:00 11,1 8,5 9 5 22 12 NNO 1013,8 50 0,0
02.08.2020 02:00:00 11,5 8,7 10 5 18 10 NO 1013,7 50 0,0
02.08.2020 01:00:00 11,8 9,0 9 5 16 9 NO 1013,9 50 0,0
02.08.2020 00:00:00 11,0 9,1 6 4 12 7 N 1014,0 50 0,0
01.08.2020 23:00:00 9,8 8,7 0 0 6 3 N 1014,1 16 0,0
01.08.2020 22:00:00 12,5 10,4 3 1 4 2 NNO 1013,7 42 0,0
01.08.2020 21:00:00 13,1 11,3 0 0 4 2 N 1013,7 28 0,0
01.08.2020 20:00:00 15,3 12,2 0 0 7 4 N 1013,7 50 0,0
01.08.2020 19:00:00 16,3 12,5 3 2 6 3 ONO 1013,5 49 0,0
01.08.2020 18:00:00 17,6 12,5 3 1 5 3 W 1013,6 40 0,0
01.08.2020 17:00:00 14,4 13,4 4 2 12 6 NNO 1014,1 24 4,3
01.08.2020 16:00:00 13,5 12,2 2 1 24 13 ZZO 1014,5 34 2,2
01.08.2020 15:00:00 18,4 13,5 7 4 11 6 ZZW 1013,7 17 0,0
01.08.2020 14:00:00 16,1 12,6 4 2 10 5 Z 1014,5 34 0,5
01.08.2020 13:00:00 17,1 12,0 3 2 9 5 ZW 1014,5 44 0,2
01.08.2020 12:00:00 17,5 11,3 0 0 9 5 N 1014,7 41 0,0
01.08.2020 11:00:00 15,7 11,9 5 3 15 8 WZW 1015,1 50 0,0
01.08.2020 10:00:00 17,8 10,2 3 1 19 11 ONO 1014,8 46 0,0
01.08.2020 09:00:00 17,2 10,3 6 3 14 7 NO 1014,9 44 0,0
01.08.2020 08:00:00 16,3 10,6 6 3 15 8 N 1015,3 44 0,0
01.08.2020 07:00:00 15,6 10,8 6 3 12 6 N 1015,3 50 0,0
01.08.2020 06:00:00 11,9 10,3 0 0 7 4 N 1016,2 31 0,0
01.08.2020 05:00:00 10,4 8,3 2 1 8 4 NNW 1016,4 34 0,0
01.08.2020 04:00:00 8,1 7,8 0 0 8 4 N 1016,8 13 0,0
01.08.2020 03:00:00 9,7 8,2 5 3 10 5 NW 1016,6 36 0,0
01.08.2020 02:00:00 7,0 6,3 3 1 4 2 N 1017,4 23 0,0
01.08.2020 01:00:00 7,9 7,3 0 0 5 3 N 1017,1 29 0,0
01.08.2020 00:00:00 8,7 7,5 0 0 3 2 N 1016,8 36 0,0
31.07.2020 23:00:00 9,5 7,8 0 0 5 3 N 1016,7 50 0,0
31.07.2020 22:00:00 12,9 8,2 0 0 6 3 N 1016,1 47 0,0
31.07.2020 21:00:00 16,4 8,4 3 1 9 5 NO 1015,5 49 0,0
31.07.2020 20:00:00 18,3 7,7 5 3 16 9 NNO 1015,0 47 0,0
31.07.2020 19:00:00 19,4 7,8 7 4 14 8 N 1014,7 44 0,0
31.07.2020 18:00:00 19,6 6,7 9 5 18 10 NNW 1014,8 45 0,0
31.07.2020 17:00:00 19,5 6,6 4 2 17 9 N 1014,6 49 0,0
31.07.2020 16:00:00 19,0 6,1 7 4 15 8 N 1014,8 36 0,0
31.07.2020 15:00:00 18,4 6,6 8 4 16 9 N 1015,1 36 0,0
31.07.2020 14:00:00 17,7 7,7 4 2 17 9 NNW 1015,3 29 0,0
31.07.2020 13:00:00 16,2 7,1 6 4 18 10 NNO 1015,6 35 0,0
31.07.2020 12:00:00 14,7 8,0 6 3 16 8 N 1016,1 28 0,0
31.07.2020 11:00:00 13,2 8,1 9 5 18 10 NNW 1016,4 31 0,0
31.07.2020 10:00:00 12,5 8,0 5 3 16 9 NNO 1016,3 41 0,0
31.07.2020 09:00:00 11,4 7,5 9 5 18 10 NO 1016,5 47 0,0
31.07.2020 08:00:00 11,3 7,2 8 4 16 9 NO 1016,3 48 0,0
31.07.2020 07:00:00 10,9 7,2 12 6 20 11 NO 1016,2 36 0,0
31.07.2020 06:00:00 10,4 7,5 8 4 16 9 NNO 1016,1 38 0,0
31.07.2020 05:00:00 9,7 7,5 7 4 19 10 NNO 1015,8 43 0,0
31.07.2020 04:00:00 9,1 7,2 10 5 16 9 NNO 1015,5 50 0,0
31.07.2020 03:00:00 9,1 7,2 9 5 15 8 NNO 1015,0 50 0,0
31.07.2020 02:00:00 9,6 7,4 8 4 13 7 NNO 1014,4 50 0,0
31.07.2020 01:00:00 10,7 7,6 6 4 14 7 N 1013,7 50 0,0
31.07.2020 00:00:00 11,8 7,9 9 5 16 9 NNO 1013,0 50 0,0
30.07.2020 23:00:00 12,7 7,8 8 5 12 7 NNO 1012,3 50 0,0
30.07.2020 22:00:00 14,9 7,4 8 4 15 8 NNO 1011,5 50 0,0
30.07.2020 21:00:00 16,8 7,7 8 5 23 12 NNO 1010,6 50 0,0
30.07.2020 20:00:00 18,5 8,2 12 6 31 17 NO 1009,7 46 0,0
30.07.2020 19:00:00 19,2 8,5 13 7 29 16 NO 1009,2 49 0,0
30.07.2020 18:00:00 20,1 9,6 15 8 29 16 NNO 1008,6 50 0,0
30.07.2020 17:00:00 19,9 9,5 13 7 31 17 NO 1008,4 36 0,0
30.07.2020 16:00:00 20,0 9,8 16 9 32 17 NO 1008,2 40 0,0
30.07.2020 15:00:00 19,2 9,7 17 9 36 19 NNO 1008,1 42 0,0
30.07.2020 14:00:00 19,7 11,2 16 9 40 21 NNO 1008,0 41 0,0
30.07.2020 13:00:00 20,0 11,0 18 10 35 19 NO 1007,6 37 0,0
30.07.2020 12:00:00 18,0 9,9 21 11 41 22 NO 1007,8 47 0,0
30.07.2020 11:00:00 18,6 9,4 18 10 36 19 ONO 1007,4 36 0,0
30.07.2020 10:00:00 17,2 10,6 22 12 40 22 NO 1007,5 38 0,0
30.07.2020 09:00:00 17,4 11,7 19 10 35 19 NNO 1007,3 41 0,0
30.07.2020 08:00:00 16,0 11,2 14 8 26 14 NO 1007,6 47 0,0
30.07.2020 07:00:00 15,5 10,9 14 8 23 12 NNO 1007,4 40 0,0
30.07.2020 06:00:00 13,8 10,4 10 5 19 10 NNO 1007,8 50 0,0
30.07.2020 05:00:00 13,0 9,6 12 6 18 10 NNO 1007,7 44 0,0
30.07.2020 04:00:00 11,6 8,8 6 4 10 6 NNO 1008,0 49 0,0
30.07.2020 03:00:00 12,0 8,1 7 4 13 7 NO 1007,7 50 0,0
30.07.2020 02:00:00 13,1 8,0 6 3 16 9 ONO 1007,7 50 0,0
30.07.2020 01:00:00 14,0 9,6 9 5 17 9 ONO 1007,6 50 0,0
30.07.2020 00:00:00 14,5 10,3 8 5 12 7 NO 1007,3 50 0,0
29.07.2020 23:00:00 15,7 10,7 7 4 10 6 NO 1007,1 50 0,0
29.07.2020 22:00:00 17,0 11,1 5 3 8 5 NO 1007,0 50 0,0
29.07.2020 21:00:00 17,6 11,2 4 2 9 5 NO 1007,0 50 0,0
29.07.2020 20:00:00 19,1 10,6 4 2 13 7 ONO 1007,0 50 0,0
29.07.2020 19:00:00 19,6 10,0 5 3 14 8 O 1007,0 50 0,0
29.07.2020 18:00:00 20,0 9,6 7 4 22 12 OZO 1007,1 50 0,0

tt = temperatuur
td = dauwpunt
ff = windsnelheid
fx = windstoten
dd = windrichting
ppp = luchtdruk
vv = zicht
rr = neerslag

Weerstations in de omgeving